Погода в Биофабрике

Россия / Орловская область     52˚59′28″N   35˚58′25″E
темп.,
°C
ветер,
м/с
пор.,
м/с
влажн.,
%
обл.,
%
осадки,
мм/ч
давл.,
гПа
погр.,
м
16 января, сб
сб1600:00−10˚в2396100 0.3 100878
03:00−11˚всв2296100 0.6 100722
06:00−11˚всв2396100 0.6 100784
09:00−13˚ссв229699 0.8 100825
12:00−12˚зсз359496 0.1 1008293
15:00−12˚зсз589398 0.2 1010444
18:00−15˚з61093100 0.1 1010344
21:00−16˚з61095100 0.4 1011386
17 января, вс
вс1700:00−16˚з51094100 0.3 1012348
03:00−16˚зсз4895100 0.6 1013381
06:00−16˚зсз4696100 0.6 1013316
09:00−15˚зсз3696100 1.4 1014330
12:00−16˚с3492100 0.3 1016350
15:00−17˚с2392100 0.3 1016305
18:00−19˚с2295100 0.0 101834
21:00−21˚ссв3596100 0.0 101893
18 января, пн
пн1800:00−24˚св229724 0.0 101920
03:00−24˚ссв129650 0.0 102020
06:00−25˚ссв229783 0.0 101920
09:00−24˚св229692 0.0 102028
12:00−21˚всв1293100 0.0 1020216
15:00−20˚с1293100 0.0 1019218
18:00−21˚с1296100 0.0 101937
21:00−20˚с1199100 0.3 102065
19 января, вт
вт1900:00−20˚ссз1198100 0.4 102081
03:00−19˚ссз1298100 0.7 1020114
06:00−19˚ссз1198100 0.4 101926
09:00−19˚сз1298100 0.6 102027
12:00−17˚сз2392100 0.2 1019225
15:00−16˚зсз2391100 0.2 1019229
18:00−18˚зсз2295100 0.0 102020
21:00−19˚зсз2397100 0.0 102120
20 января, ср
ср2000:00−20˚зсз239991 0.0 102120
03:00−20˚зсз239866 0.0 102220
06:00−20˚з239939 0.0 102320
09:00−21˚з229931 0.0 102420
12:00−16˚юз239510 0.0 1025100
15:00−15˚юз23957 0.0 1024105
18:00−18˚ююз23960 0.0 102520
21:00−18˚ю34960 0.0 102545